Home > Weather > Stade > Past weeks

Flag for Germany Weather for the Past 2 Weeks in Stade, Lower Saxony, Germany

Now
34 °F

Fog.


Feels Like: 29 °F
Forecast: 33 / 40 °F
Wind: 6 mph from Northeast

Location: Hamburg-Finkenwerder

Current Time: Feb 12, 2016 at 8:28:59 PM

Latest Report: Feb 12, 2016 at 7:50 PM


Visibility: 2 mi

Pressure: 29.53 "Hg

Humidity: 100%

Dew point: 34 °F

Location of StadeLocation

Historic Weather in Stade — Graph

°F

Stade Temperature Yesterday

Maximum temperature yesterday: 45 °F (at 3:20 PM)
Minimum temperature yesterday: 37 °F (at 6:50 AM)
Average temperature yesterday: 40 °F

High & Low Weather Summary for the Past Weeks

 TemperatureHumidityPressure
High52 °F (Feb 1, 12:50 PM)100% (Jan 29, 7:20 AM)30.18 "Hg (Jan 29, 7:20 AM)
Low34 °F (Feb 4, 8:50 PM)61% (Feb 2, 7:20 PM)28.74 "Hg (Feb 9, 9:20 PM)
Average42 °F92%29.65 "Hg
* Reported Jan 28 6:20 PM — Feb 12 6:50 PM, Stade, Weather by CustomWeather, © 2016

Note: Actual official high and low records may vary slightly from our data, if they occured in-between our weather recording intervals... More about our weather records

Advertising

Stade Weather History for the Previous 24 Hours

 ConditionsComfort  
Time TempWeatherWind HumidityBarometerVisibility
6:50 PM
Fri, Feb 12
34 °FFog.2 mph100%29.53 "Hg3 mi
6:20 PM36 °FFog.3 mph100%29.53 "Hg3 mi
5:50 PM36 °FPassing clouds.5 mph100%29.53 "Hg4 mi
5:20 PM36 °FPartly sunny.5 mph100%29.53 "Hg4 mi
4:50 PM36 °FPartly sunny.5 mph100%29.53 "Hg5 mi
4:20 PM36 °FPartly sunny.6 mph100%29.53 "Hg4 mi
3:50 PM36 °FScattered clouds.5 mph100%29.53 "Hg6 mi
3:20 PM37 °FBroken clouds.5 mph100%29.53 "Hg6 mi
2:50 PM37 °FBroken clouds.6 mph100%29.53 "Hg6 mi
2:20 PM37 °FBroken clouds.8 mph100%29.56 "Hg5 mi
1:50 PM36 °FFog.8 mph100%29.56 "Hg3 mi
1:20 PM36 °FPartly sunny.7 mph100%29.56 "Hg4 mi
12:50 PM37 °FPartly sunny.7 mph100%29.56 "Hg4 mi
12:20 PM37 °FPartly sunny.6 mph100%29.56 "Hg4 mi
11:50 AM37 °FPartly sunny.9 mph100%29.56 "Hg5 mi
11:20 AM37 °FScattered clouds.7 mph100%29.59 "HgN/A
10:50 AM37 °FScattered clouds.6 mph100%29.59 "Hg6 mi
10:20 AM36 °FScattered clouds.6 mph100%29.59 "Hg5 mi
9:50 AM34 °FScattered clouds.7 mph100%29.59 "Hg6 mi
9:20 AM34 °FScattered clouds.7 mph100%29.59 "Hg6 mi
8:50 AM34 °FScattered showers. Broken clouds.6 mph100%29.59 "Hg5 mi
8:20 AM34 °FScattered clouds.6 mph100%29.59 "Hg6 mi
7:50 AM34 °FScattered clouds.6 mph100%29.59 "HgN/A
7:20 AM34 °FPassing clouds.6 mph100%29.59 "HgN/A
6:50 AM34 °FPartly cloudy.5 mph100%29.59 "HgN/A
6:20 AM34 °FPassing clouds.3 mph100%29.59 "HgN/A
5:50 AM34 °FPassing clouds.5 mph100%29.59 "HgN/A
Weather by CustomWeather, © 2016

See weather overviewHow to use our weather pages